www.pogodaiklimat.ru
ПОГОДА на Базе ВВС Муир
Время
и дата
18:55 29.11
19:55 29.11
20:55 29.11
21:55 29.11
22:55 29.11
23:55 29.11
00:55 30.11
01:55 30.11
02:55 30.11
03:55 30.11
04:55 30.11
05:05 30.11
05:55 30.11
06:08 30.11
06:55 30.11
07:43 30.11
07:55 30.11
08:55 30.11
09:56 30.11
10:34 30.11
10:55 30.11
11:55 30.11
12:31 30.11
12:47 30.11
12:56 30.11
13:45 30.11
13:56 30.11
14:01 30.11
14:49 30.11
14:55 30.11
15:13 30.11
15:34 30.11
15:55 30.11
16:55 30.11
17:55 30.11
18:55 30.12
19:55 30.11
20:55 30.11
21:55 30.11
22:55 30.11
23:55 30.11
00:55 01.12
01:55 01.12
02:55 01.12
02:59 01.12
03:01 01.12
03:55 01.12
04:55 01.12
Ветер
(напр.,м/с)
Видим. Явления Облачность Т
(С)
Тd
(С)
f
(%)
Тe
(С)
Тes
(С)
Комфортность P
(гПа)
Po
(гПа)
Тmin
(С)
Tmax
(С)
R
(мм)
R24
(мм)
S
(см)
нст 1 16 км 8/0 6000 m
[Ac]
+1.6 -1.3 81 0 0 1024.2 1005.3 +1.6 +8.3
нст 2 16 км 2/0 6000 m
[Ac]
+1.7 -1.7 78 -1 -1 1023.8 1005.0
ЮВ 2 16 км 8/2 1350 m
[Ac]
+1.7 -1.4 80 -2 -2 1023.1 1004.3
ЮВ 2 16 км 8/5 1350 m
[Ac]
+2.0 -1.3 79 -1 -1 1023.4 1004.6
16 км н/о +2.4 -1.0 78 +2 +2 1022.7 1004.0
16 км н/о +2.5 -0.8 79 +2 +2 1021.6 1003.0
16 км н/о +3.2 -0.1 79 +2 +2 1020.2 1001.6 +1.2 +3.2
16 км н/о +3.7 +0.2 78 +3 +3 1019.9 1001.3
16 км н/о +3.8 +0.8 81 +3 +3 1019.2 1000.6
16 км н/о +4.1 +1.5 83 +3 +3 1018.5 1000.0
16 км н/о +4.5 +1.5 81 +4 +4 1017.5 999.0
16 км слабая морось н/о +5.0 +2.0 81 +4 +4 1017.5 999.0
16 км слабая морось н/о +4.9 +3.4 90 +4 +4 1016.5 998.0
штиль 0 13 км слабый дождь 10/10 360 m
[Ns]
+5.0 +4.0 93 +4 +4 1016.5 998.0
нст 1 8 км слабый дождь, дымка 10/10 300 m
[Ns]
+4.1 +3.4 95 +3 +3 1015.6 997.0 +3.3 +4.9 2.8 2.8
штиль 0 4 км слабый дождь, дымка 10/10 120 m
[Ns]
+4.0 +4.0 100 +3 +3 1014.9 996.3
штиль 0 4 км слабый дождь, дымка 10/10 120 m
[Ns]
+4.2 +3.6 96 +3 +3 1014.5 996.0
штиль 0 3 км слабый дождь, дымка 10/10 120 m
[Ns]
+4.8 +4.2 96 +4 +4 1013.2 994.6
нст 3 6 км слабый дождь, дымка 10/10 120 m
[Ns]
+5.9 +5.3 96 +2 +2 1010.8 992.3 7.9
Ю 4 8 км слабый дождь 10/10 180 m
[Ns]
+8.0 +8.0 100 +4 +4 1009.4 991.0
Ю 3 11 км слабый дождь 10/10 180 m
[Ns]
+8.7 +8.1 96 +6 +6 1008.7 990.3
Ю 3 16 км слабый дождь 10/10 180 m
[Ns]
+9.0 +8.4 96 +6 +6 1007.0 988.7
Ю 6
{10}
8 км слабый дождь, дымка 10/10 240 m
[Ns]
+10.0 +10.0 100 +6 +6 1005.9 987.7
Ю 8
{13}
6 км слабый дождь, дымка 10/10 210 m
[Ns]
+11.0 +10.0 94 +7 +7 1005.6 987.3
ЮЗ 5
{10}
8 км слабый дождь 10/10 210 m
[Ns]
+10.7 +10.1 96 +8 +8 1005.2 987.0 +4.1 +10.7 12.7
ЮЗ 5
{9}
14 км слабый дождь, дымка 10/10 210 m
[Ns]
+11.0 +10.0 94 +8 +8 1004.5 986.3
Ю 5
{9}
11 км слабый дождь 10/10 210 m
[Ns]
+11.2 +10.6 96 +8 +8 1004.5 986.3
Ю 5
{9}
11 км слабый дождь 10/10 210 m
[Ns]
+11.0 +11.0 100 +8 +8 1004.5 986.3
З 8
{13}
3 км сильный дождь, дымка 10/10 210 m
[Ns]
+11.0 +11.0 100 +7 +7 1005.9 987.7
З 8
{14}
5 км слабый дождь, дымка 10/10 210 m
[Ns]
+11.1 +9.7 91 +7 +7 1005.9 987.7
З 6
{13}
16 км слабый дождь 10/10 210 m
[Ns]
+11.0 +8.0 82 +8 +8 1006.2 988.0
З 7
{14}
16 км 10/10 210 м +11.0 +7.0 76 +8 +8 1007.2 989.0
З 8
{16}
16 км 8/8 360 м +10.3 +3.8 64 +7 +7 1007.6 989.3 4.6
З 6
{13}
16 км 8/5 600 m
[Ac]
+9.2 +0.9 56 +6 +6 1009.3 991.0
З 6
{13}
16 км 2/0 2400 m
[Ac]
+7.1 -2.1 52 +3 +3 1010.7 992.3
З 7
{13}
16 км 2/2 1800 м +6.2 -5.2 44 +2 +2 1012.8 994.3 +6.2 +11.4 5.6
З 8
{14}
16 км 2/2 1800 м +5.2 -5.5 46 0 0 1012.4 994.0
З 8
{15}
16 км 2/2 1800 м +4.4 -7.7 41 -1 -1 1013.8 995.3
З 7
{15}
16 км 2/2 1800 м +2.7 -9.9 39 -3 -3 1015.2 996.6
16 км н/о +1.8 -9.8 42 +2 +2 1016.2 997.6
16 км н/о +1.8 -9.8 42 +2 +2 1016.5 998.0
16 км н/о +1.9 -9.4 43 +2 +2 1016.5 998.0 +1.4 +6.2
16 км н/о +2.1 -8.9 44 +2 +2 1017.5 999.0
16 км н/о +2.2 -9.4 42 +2 +2 1018.5 1000.0
16 км слабые неопределенные осадки н/о +2.0 -9.0 44 +2 +2 1018.5 1000.0
16 км н/о +2.0 -9.0 44 +2 +2 1018.5 1000.0
16 км н/о +1.4 -10.7 40 +1 +1 1019.9 1001.3
16 км н/о +0.8 -10.7 42 +1 +1 1020.9 1002.3
Местоположение метеостанции Muir Army Airfield: широта 40.4333 долгота -76.5667 высота над уровнем моря 149 м.
В архиве по умолчанию представлена погода на Базе ВВС Муир за последние 1-2 суток. Обновление информации о фактической погоде в базе происходит ежечасно! Архивные данные за месяц целиком и за предыдущие месяцы Вы можете получить, выбрав интересующий диапазон дат из раскрывающегося списка и нажав кнопку "Ввод!".
Внимание! Архив погоды МЕТАР в базе сайта по станциям, не включенным в климатический монитор, хранится не более 60 дней. Нет смысла пытаться выбрать более раннюю дату.
*Определитесь, кто Вы:
Внимание! Время в таблицах - местное (без учета летнего времени). Для получения всемирного времени необходимо вычесть поправку, которая равна -5 ч.
Смотрите также архив погоды в соседних городах и на ближайших метеорологических станциях:
Партнеры нашего сайта:      
Пояснения к столбцам:
  • Ветер - указаны скорость ветра в м/с - средняя за 10 мин, порывы в срок и между сроками (в фигурных скобках) и направление, откуда дует ветер: С - северный,
  • СВ - северо-восточный, В - восточный, ЮВ - юго-восточный, Ю - южный, ЮЗ - юго-западный, З - западный, СЗ - северо-западный.
  • Видимость - горизонтальная дальность видимости в метрах или километрах. При видимости от 1 до 10 км при отсутствии осадков обычно наблюдается дымка, при ухудшении видимости до 1 км и менее - туман. В сухую погоду видимость может ухудшаться дымом, пылью или мглою.
  • Явления - указаны атмосферные явления, наблюдавшиеся в срок или в последний час перед сроком; фигурными скобками обозначены явления, наблюдавшиеся между сроками (за 1-3 часа до срока); квадратными скобками обозначены град или гололедные отложения с указанием их диаметра в мм.
  • Облачность - указаны через наклонную черту общая и нижняя облачность в баллах и высота нижней границы облаков в метрах; квадратными скобками обозначены формы облаков: Ci - перистые, Cs - перисто-слоистые, Cc - перисто-кучевые, Ac - высококучевые, As - высокослоистые, Sc - слоисто-кучевые, Ns - слоисто-дождевые, Cu - кучевые, Cb - кучево-дождевые. Подробнее классификацию облаков см. в Атласе облаков (PDF).
  • T - Температура воздуха - температура, измеренная на высоте 2 м над землей.
  • Td - Температура точки росы - температура, при понижении до которой содержащийся в воздухе водяной пар достигнет насыщения.
  • f - Относительная влажность воздуха - влажноcть воздуха, измеренная на высоте 2 м над землей.
  • Te - Эффективная температура - температура, которую ощущает одетый по сезону человек в тени. Характеристика душности погоды. При расчете учитывается влияние влажности воздуха и скорости ветра на теплоощущения человека.
  • Tes - Эффективная температура на солнце - температура, которую ощущает человек, с поправкой на солнечный нагрев. Характеристика знойности погоды. Зависит от высоты солнца над горизонтом, облачности и скорости ветра. Ночью, в пасмурную погоду, а также при ветре 12 м/с и более поправка равна нулю.
  • P - Атмосферное давление - приведенное к уровню моря атмосферное давление.
  • Po - Атмосферное давление - измеренное на уровне метеостанции атмосферное давление.
  • Tmin - Минимальная температура - минимум температуры воздуха на высоте 2 м над землей.
  • Tmax - Максимальная температура - максимум температуры воздуха на высоте 2 м над землей.
  • R - Количество осадков - Количество выпавших осадков за период времени, мм. При наведении курсора мыши на число - период времени, за который выпало указанное количество осадков.
  • R24 - Количество осадков - Количество выпавших осадков за 24 часа, мм.
  • S - Снежный покров - Высота снежного покрова, см. При наведении курсора мыши на число - состояние снежного покрова и степень покрытия местности в баллах.